User: anonymous   Login
Location: Unspecified
(0.0000°N, 0.0000°E)
Time: 02:14:01
(UTC+00:00)
Language:

YUBILEINY - Orbit

View from above orbital plane
View from above orbital plane
View from above satellite
View from above satellite

Ground track
Ground track

The orbit data is extracted from the following two-line orbital elements,

1 32953U 08025A   19016.72495490  .00000021  00000-0  75656-4 0  9990
2 32953  82.5011 239.8715 0019627 102.0556 258.2723 12.43087315483301
Epoch (UTC): 16 January 2019 17:23:56
Eccentricity: 0.0019627
inclination: 82.5011°
perigee height: 1478 km
apogee height: 1509 km
right ascension of ascending node: 239.8715°
argument of perigee: 102.0556°
revolutions per day: 12.43087315
mean anomaly at epoch: 258.2723°
orbit number at epoch: 48330

The dashed part of the orbit path shows where the satellite is in the earth's shadow,  

DLR